Regional Weather Roundup
Issued by NWS Nashville, TN

Home | Current Version | Previous Version | Text Only | Print | Product List | Glossary On
Versions: 1 2 3 4 5 6 7 8 9 10 11 12 13 14 15 16 17 18 19 20 21 22 23 24 25 26 27 28 29 30 31 32 33 34 35 36 37 38 39 40 41 42 43 44 45 46 47 48 49 50
000
ASUS44 KOHX 221310
RWROHX
MIDDLE TENNESSEE HOURLY WEATHER ROUNDUP
NATIONAL WEATHER SERVICE NASHVILLE TN
700 AM CST WED FEB 22 2017

NOTE: "FAIR" INDICATES FEW OR NO CLOUDS BELOW 12,000 FEET WITH
NO SIGNIFICANT WEATHER AND/OR OBSTRUCTIONS TO VISIBILITY.

* THESE REPORTS ARE NOT UNDER NWS QUALITY CONTROL AND MAY NOT
  REPORT WEATHER SUCH AS PRECIPITATION AND FOG.


TNZ005>011-023>034-057-059-062>066-078-080-221400
...NORTHERN MIDDLE TENNESSEE...

CITY           SKY/WX    TMP DP  RH WIND       PRES   REMARKS
CLARKSVILLE      N/A     54  53  97 S3        29.91R FOG
CROSSVILLE     LGT RAIN  53  52  96 NE3       29.96R FOG
GALLATIN       CLOUDY    57  55  94 NE6       29.95R
DICKSON        CLOUDY    56  55  96 NE3       29.92R
LIVINGSTON     CLOUDY    57  53  86 SE3       29.93F
NASHVILLE      CLOUDY    57  55  93 E5        29.93R FOG
PORTLAND       CLOUDY    55  55 100 E6        29.93R
SMYRNA         LGT RAIN  55  55 100 NW10      29.92R FOG
SPARTA         CLOUDY    55  55 100 CALM      29.92S FOG
SPRINGFIELD    CLOUDY    55  55 100 CALM      29.91R FOG
WEST NASHVILLE CLOUDY    55  55 100 CALM      29.92S
$$
TNZ056-058-060-061-075>077-079-093>097-221400
...SOUTHERN MIDDLE TENNESSEE...

CITY           SKY/WX    TMP DP  RH WIND       PRES   REMARKS
COLUMBIA       CLEAR    N/A N/A N/A E5        29.87S
FAYETTEVILLE   MOCLDY    59  57  94 NE6       29.90S
MCMINNVILLE    CLOUDY    55  55 100 E5        29.93S
MURFREESBORO   MOCLDY    57  56  97 SE3       29.90S
SHELBYVILLE    CLOUDY    55  55 100 E3        29.91F
TULLAHOMA      CLOUDY    57  55  94 CALM      29.92S
WINCHESTER     CLOUDY    57  55  94 E3        29.92R
$$


...KEY TO REMARKS...
VSB - VISIBILITY IN MILES
WCI - WIND CHILL INDEX
HX  - HEAT INDEX




USA.gov is the U.S. government's official web portal to all federal, state and local government web resources and services.